{"data":{"norad_id":58911,"epoch":"2026-09-22T14:21:21.470688Z","epoch_age_seconds":71040,"freshness":"FRESH","line1":"1 58911U 24023G   26265.59816517  .00000965  00000+0  14358-3 0  9991","line2":"2 58911  50.0053 263.5927 0009638  71.3783 288.8201 14.83438157143379","mean_motion":14.83438157,"eccentricity":0.0009638,"inclination_deg":50.0053,"raan_deg":263.5927,"arg_perigee_deg":71.3783,"mean_anomaly_deg":288.8201,"bstar":0.00014358,"rev_number":14337,"period_min":97.071791850909,"perigee_km":611.74915867555,"apogee_km":625.23586171941,"semimajor_km":6996.6295101975,"source":"CELESTRAK","updated_at":"2026-09-23T09:00:19.071257Z"}}